Time,TemperatureF,DewpointF,PressureIn,WindDirection,WindDirectionDegrees,WindSpeedMPH,WindSpeedGustMPH,Humidity,HourlyPrecipIn,Conditions,Clouds,dailyrainin,SoftwareType,DateUTC
2013-08-01 00:13:00,66.1,63.0,30.02,WSW,257,0.0,0.0,90,0.00,,,0.00,weatherlink.com 1.10,2013-08-01 04:13:00,
2013-08-01 00:28:00,65.8,63.0,30.02,WSW,257,0.0,0.0,90,0.00,,,0.00,weatherlink.com 1.10,2013-08-01 04:28:00,
2013-08-01 00:43:00,65.6,63.0,30.02,WSW,257,0.0,0.0,91,0.00,,,0.00,weatherlink.com 1.10,2013-08-01 04:43:00,
2013-08-01 00:59:00,65.3,63.0,30.01,WSW,257,0.0,0.0,91,0.00,,,0.00,weatherlink.com 1.10,2013-08-01 04:59:00,
2013-08-01 01:14:00,65.1,63.0,30.00,WSW,257,0.0,0.0,91,0.00,,,0.00,weatherlink.com 1.10,2013-08-01 05:14:00,
2013-08-01 01:29:00,65.1,63.0,30.00,WSW,257,0.0,0.0,91,0.00,,,0.00,weatherlink.com 1.10,2013-08-01 05:29:00,
2013-08-01 01:44:00,65.2,63.0,29.99,WSW,257,0.0,0.0,91,0.00,,,0.00,weatherlink.com 1.10,2013-08-01 05:44:00,
2013-08-01 01:59:00,65.2,63.0,29.99,WSW,257,0.0,0.0,92,0.00,,,0.00,weatherlink.com 1.10,2013-08-01 05:59:00,
2013-08-01 02:14:00,65.0,63.0,29.99,WSW,257,0.0,0.0,92,0.00,,,0.00,weatherlink.com 1.10,2013-08-01 06:14:00,
2013-08-01 02:29:00,65.0,63.0,29.98,WSW,257,0.0,0.0,92,0.00,,,0.00,weatherlink.com 1.10,2013-08-01 06:29:00,
2013-08-01 02:44:00,64.9,63.0,29.98,WSW,257,0.0,0.0,92,0.00,,,0.00,weatherlink.com 1.10,2013-08-01 06:44:00,
2013-08-01 02:59:00,65.0,63.0,29.98,WSW,257,0.0,0.0,93,0.00,,,0.00,weatherlink.com 1.10,2013-08-01 06:59:00,
2013-08-01 03:14:00,65.2,63.0,29.97,WSW,257,0.0,0.0,92,0.00,,,0.00,weatherlink.com 1.10,2013-08-01 07:14:00,
2013-08-01 03:29:00,65.1,63.0,29.96,WSW,257,0.0,0.0,93,0.00,,,0.00,weatherlink.com 1.10,2013-08-01 07:29:00,
2013-08-01 03:44:00,65.1,63.0,29.96,WSW,257,0.0,0.0,93,0.00,,,0.00,weatherlink.com 1.10,2013-08-01 07:44:00,
2013-08-01 03:59:00,65.2,63.0,29.95,WSW,257,0.0,0.0,93,0.00,,,0.00,weatherlink.com 1.10,2013-08-01 07:59:00,
2013-08-01 04:29:00,65.3,63.0,29.95,WSW,257,0.0,0.0,93,0.00,,,0.00,weatherlink.com 1.10,2013-08-01 08:29:00,
2013-08-01 04:44:00,65.5,64.0,29.95,WSW,257,0.0,0.0,93,0.00,,,0.00,weatherlink.com 1.10,2013-08-01 08:44:00,
2013-08-01 04:59:00,65.7,64.0,29.95,WSW,257,0.0,0.0,93,0.00,,,0.00,weatherlink.com 1.10,2013-08-01 08:59:00,
2013-08-01 05:14:00,65.8,64.0,29.95,WSW,257,0.0,0.0,93,0.00,,,0.00,weatherlink.com 1.10,2013-08-01 09:14:00,
2013-08-01 05:29:00,65.9,64.0,29.95,WSW,257,0.0,0.0,93,0.00,,,0.00,weatherlink.com 1.10,2013-08-01 09:29:00,
2013-08-01 05:44:00,66.1,64.0,29.95,WSW,257,0.0,0.0,93,0.00,,,0.00,weatherlink.com 1.10,2013-08-01 09:44:00,
2013-08-01 06:14:00,66.3,64.0,29.95,WSW,257,0.0,0.0,92,0.00,,,0.00,weatherlink.com 1.10,2013-08-01 10:14:00,
2013-08-01 06:29:00,66.5,65.0,29.95,WSW,257,0.0,0.0,93,0.00,,,0.00,weatherlink.com 1.10,2013-08-01 10:29:00,
2013-08-01 06:44:00,66.6,64.0,29.95,WSW,257,0.0,0.0,92,0.00,,,0.00,weatherlink.com 1.10,2013-08-01 10:44:00,
2013-08-01 06:59:00,67.1,65.0,29.94,WSW,257,0.0,0.0,92,0.00,,,0.00,weatherlink.com 1.10,2013-08-01 10:59:00,
2013-08-01 07:14:00,67.6,65.0,29.94,WSW,257,0.0,0.0,92,0.00,,,0.00,weatherlink.com 1.10,2013-08-01 11:14:00,
2013-08-01 07:29:00,68.0,65.0,29.94,WSW,257,0.0,0.0,91,0.00,,,0.00,weatherlink.com 1.10,2013-08-01 11:29:00,
2013-08-01 07:44:00,68.3,66.0,29.94,WSW,257,0.0,0.0,91,0.00,,,0.00,weatherlink.com 1.10,2013-08-01 11:44:00,
2013-08-01 07:59:00,68.6,66.0,29.94,WSW,257,0.0,0.0,91,0.00,,,0.00,weatherlink.com 1.10,2013-08-01 11:59:00,
2013-08-01 08:29:00,70.0,66.0,29.93,WSW,257,0.0,0.0,88,0.00,,,0.00,weatherlink.com 1.10,2013-08-01 12:29:00,
2013-08-01 08:44:00,70.5,67.0,29.93,WSW,257,0.0,1.0,87,0.00,,,0.00,weatherlink.com 1.10,2013-08-01 12:44:00,
2013-08-01 09:14:00,72.2,66.0,29.92,WSW,258,0.0,1.0,81,0.00,,,0.00,weatherlink.com 1.10,2013-08-01 13:14:00,
2013-08-01 09:45:00,71.8,66.0,29.92,WSW,252,0.0,0.0,82,0.00,,,0.00,weatherlink.com 1.10,2013-08-01 13:45:00,
2013-08-01 10:29:00,71.6,67.0,29.91,WSW,252,0.0,1.0,86,0.00,,,0.00,weatherlink.com 1.10,2013-08-01 14:29:00,
2013-08-01 10:44:00,71.4,67.0,29.91,South,184,0.0,8.0,86,0.00,,,0.00,weatherlink.com 1.10,2013-08-01 14:44:00,
2013-08-01 11:30:00,68.4,66.0,29.92,NNW,337,0.0,5.0,92,0.04,,,0.04,weatherlink.com 1.10,2013-08-01 15:30:00,
2013-08-01 12:00:00,67.0,65.0,29.91,SW,225,0.0,2.0,93,0.05,,,0.06,weatherlink.com 1.10,2013-08-01 16:00:00,
2013-08-01 12:15:00,66.5,65.0,29.91,WNW,294,0.0,1.0,94,0.04,,,0.08,weatherlink.com 1.10,2013-08-01 16:15:00,
2013-08-01 12:30:00,66.2,65.0,29.91,WSW,251,0.0,1.0,94,0.07,,,0.11,weatherlink.com 1.10,2013-08-01 16:30:00,
2013-08-01 12:45:00,66.0,65.0,29.91,WSW,251,0.0,0.0,95,0.05,,,0.11,weatherlink.com 1.10,2013-08-01 16:45:00,
2013-08-01 13:00:00,66.1,65.0,29.91,WSW,251,0.0,0.0,95,0.06,,,0.12,weatherlink.com 1.10,2013-08-01 17:00:00,
2013-08-01 13:15:00,66.2,65.0,29.91,WSW,251,0.0,0.0,96,0.09,,,0.17,weatherlink.com 1.10,2013-08-01 17:15:00,
2013-08-01 13:30:00,66.2,65.0,29.90,WSW,256,0.0,2.0,96,0.09,,,0.20,weatherlink.com 1.10,2013-08-01 17:30:00,
2013-08-01 14:00:00,66.2,65.0,29.90,WNW,293,0.0,1.0,96,0.12,,,0.24,weatherlink.com 1.10,2013-08-01 18:00:00,
2013-08-01 14:15:00,66.4,65.0,29.89,WNW,293,0.0,1.0,96,0.08,,,0.25,weatherlink.com 1.10,2013-08-01 18:15:00,
2013-08-01 15:15:00,66.6,66.0,29.88,West,276,0.0,1.0,96,0.00,,,0.25,weatherlink.com 1.10,2013-08-01 19:15:00,
2013-08-01 15:45:00,66.3,65.0,29.88,West,277,0.0,0.0,96,0.00,,,0.25,weatherlink.com 1.10,2013-08-01 19:45:00,
2013-08-01 16:15:00,66.0,65.0,29.86,ENE,67,0.0,4.0,96,0.01,,,0.26,weatherlink.com 1.10,2013-08-01 20:15:00,
2013-08-01 16:30:00,65.9,65.0,29.86,ENE,76,0.0,1.0,96,0.01,,,0.26,weatherlink.com 1.10,2013-08-01 20:30:00,
2013-08-01 16:45:00,66.1,65.0,29.86,ENE,76,0.0,1.0,97,0.01,,,0.26,weatherlink.com 1.10,2013-08-01 20:45:00,
2013-08-01 17:30:00,66.0,65.0,29.85,ENE,76,0.0,0.0,97,0.09,,,0.35,weatherlink.com 1.10,2013-08-01 21:30:00,
2013-08-01 17:45:00,66.1,65.0,29.85,ENE,76,0.0,0.0,97,0.10,,,0.36,weatherlink.com 1.10,2013-08-01 21:45:00,
2013-08-01 18:15:00,65.8,65.0,29.84,ENE,76,0.0,0.0,97,0.06,,,0.40,weatherlink.com 1.10,2013-08-01 22:15:00,
2013-08-01 18:30:00,65.8,65.0,29.84,ENE,76,0.0,0.0,97,0.05,,,0.40,weatherlink.com 1.10,2013-08-01 22:30:00,
2013-08-01 18:45:00,65.9,65.0,29.84,ENE,76,0.0,1.0,97,0.05,,,0.41,weatherlink.com 1.10,2013-08-01 22:45:00,
2013-08-01 19:00:00,65.9,65.0,29.84,ENE,76,0.0,0.0,97,0.03,,,0.41,weatherlink.com 1.10,2013-08-01 23:00:00,
2013-08-01 19:15:00,66.0,65.0,29.84,ENE,76,0.0,0.0,97,0.01,,,0.41,weatherlink.com 1.10,2013-08-01 23:15:00,
2013-08-01 19:30:00,66.1,65.0,29.84,ENE,76,0.0,0.0,97,0.04,,,0.44,weatherlink.com 1.10,2013-08-01 23:30:00,
2013-08-01 20:00:00,66.1,65.0,29.84,ENE,76,0.0,0.0,97,0.05,,,0.46,weatherlink.com 1.10,2013-08-02 00:00:00,
2013-08-01 20:15:00,66.1,65.0,29.84,ENE,76,0.0,0.0,97,0.05,,,0.46,weatherlink.com 1.10,2013-08-02 00:15:00,
2013-08-01 20:30:00,66.2,66.0,29.84,ENE,76,0.0,0.0,98,0.03,,,0.47,weatherlink.com 1.10,2013-08-02 00:30:00,
2013-08-01 20:45:00,66.3,66.0,29.83,ENE,76,0.0,0.0,98,0.03,,,0.48,weatherlink.com 1.10,2013-08-02 00:45:00,
2013-08-01 21:00:00,66.4,66.0,29.83,ENE,76,0.0,0.0,98,0.03,,,0.49,weatherlink.com 1.10,2013-08-02 01:00:00,
2013-08-01 21:15:00,66.5,66.0,29.83,ENE,76,0.0,0.0,98,0.03,,,0.49,weatherlink.com 1.10,2013-08-02 01:15:00,
2013-08-01 21:30:00,66.6,66.0,29.82,ENE,76,0.0,0.0,98,0.02,,,0.49,weatherlink.com 1.10,2013-08-02 01:30:00,
2013-08-01 21:45:00,66.7,66.0,29.83,ENE,76,0.0,0.0,98,0.01,,,0.49,weatherlink.com 1.10,2013-08-02 01:45:00,
2013-08-01 22:15:00,67.0,67.0,29.83,ENE,76,0.0,1.0,98,0.00,,,0.49,weatherlink.com 1.10,2013-08-02 02:15:00,
2013-08-01 22:45:00,67.2,67.0,29.82,ENE,76,0.0,0.0,98,0.00,,,0.49,weatherlink.com 1.10,2013-08-02 02:45:00,
2013-08-01 23:00:00,67.2,67.0,29.82,ENE,76,0.0,0.0,98,0.01,,,0.50,weatherlink.com 1.10,2013-08-02 03:00:00,
2013-08-01 23:30:00,67.4,67.0,29.82,ENE,76,0.0,0.0,98,0.01,,,0.50,weatherlink.com 1.10,2013-08-02 03:30:00,
2013-08-01 23:45:00,67.3,67.0,29.82,ENE,76,0.0,0.0,98,0.01,,,0.50,weatherlink.com 1.10,2013-08-02 03:45:00,